Regional Weather Roundup
Issued by NWS Jackson, KY

Home | Current Version | Previous Version | Graphics & Text | Print | Product List | Glossary On
Versions: 1 2 3 4 5 6 7 8 9 10 11 12 13 14 15 16 17 18 19 20 21 22 23 24 25 26 27
000
ASUS43 KJKL 161510
RWRJKL

EAST KENTUCKY HOURLY WEATHER ROUNDUP
NATIONAL WEATHER SERVICE JACKSON KY
1000 AM EST MON JAN 16 2017

NOTE: "FAIR" INDICATES FEW OR NO CLOUDS BELOW 12,000 FEET WITH
NO SIGNIFICANT WEATHER AND/OR OBSTRUCTIONS TO VISIBILITY.

* THESE REPORTS ARE NOT UNDER NWS QUALITY CONTROL AND MAY NOT
  REPORT WEATHER SUCH AS PRECIPITATION AND FOG.

KYZ079-080-083-085-087-088-110-112-115-119-120-161600
...EASTERN KENTUCKY...

CITY           SKY/WX    TMP DP  RH WIND       PRES   REMARKS
JACKSON        FOG       44  43  96 CALM      30.30R VSB 1/2
LONDON         CLOUDY    50  47  89 CALM      30.29R
SOMERSET*      CLOUDY    46  46 100 CALM      30.30S
MONTICELLO*    CLOUDY    51  51 100 CALM      30.29R
WILLIAMSBURG*  CLOUDY    54  54 100 SE7       30.29R
MIDDLESBORO*   CLOUDY    52  52 100 CALM      30.33R
HARLAN APT*    PTSUNNY   54  50  87 CALM      30.32R
PIKE CO APT*   FOG       45  45 100 S5        30.30S VSB 1/2
BIG SANDY APT* CLOUDY    45  45 100 CALM      30.31R FOG
MOREHEAD APT*  CLOUDY    41  41 100 VRB6      30.32S FOG
ASHLAND*       CLOUDY    43  39  87 CALM      30.31S
$$

KYZ035-036-041-042-044-050-067-078-099-161600
...CENTRAL KENTUCKY...

CITY           SKY/WX    TMP DP  RH WIND       PRES   REMARKS
MT STERLING*   CLOUDY    43  43 100 SE3       30.32R
FLEMING/MASON* CLOUDY    41  41  99 SE3       30.32S FOG
DANVILLE*      FOG       45  45 100 CALM      30.29R VSB 1/2
LEXINGTON      MOSUNNY   46  43  89 SE7       30.28S
FRANKFORT      PTSUNNY   46  42  86 E6        30.27S
LOUISVILLE     PTSUNNY   47  42  83 E3        30.26S
LEBANON*       CLOUDY    46  46 100 E3        30.26S
GLASGOW*       CLOUDY   N/A N/A N/A CALM      30.25R
BOWLING GREEN  CLOUDY    48  46  93 CALM      30.25R
$$

KYZ091>093-OHZ055-061-077-WVZ005-015-034-035-042-161600
...SOUTHERN OHIO/WEST VIRGINIA...

CITY           SKY/WX    TMP DP  RH WIND       PRES   REMARKS
COVINGTON      FOG       40  40 100 SE9       30.28R VSB 3/4 WCI  34
COLUMBUS       CLOUDY    39  33  79 E3        30.32R HAZE
DAYTON         CLOUDY    37  36  96 SE7       30.29R FOG     WCI  32
WILMINGTON     CLOUDY    40  39  97 SE8       30.28F FOG     WCI  34
HUNTINGTON     FOG       41  40  96 CALM      30.32R VSB 1
CHARLESTON     CLOUDY    43  41  93 CALM      30.31S FOG
BECKLEY        CLOUDY    49  47  93 SE6       30.33R
BLUEFIELD      CLOUDY    48  46  93 CALM      30.34R
LOGAN CO APT*  CLOUDY    48  48 100 CALM      30.30S
$$

VAZ002-007-008-TNZ017-027-036-066-071-161600
...SOUTHWEST VIRGINIA/EAST TENNESSEE...

CITY           SKY/WX    TMP DP  RH WIND       PRES   REMARKS
WISE*          CLOUDY    54  54 100 CALM      30.35R
JONESVILLE*    CLOUDY    54  54 100 CALM      30.35R
ABINGDON*      CLOUDY    56  56 100 E6        30.33S FOG
BRISTOL        PTSUNNY   55  53  93 CALM      30.33R
MORRISTOWN*    FOG       54  54 100 E3        30.32R VSB 1/4
SEVIERVILLE*   CLOUDY    50  50 100 CALM      30.32R
KNOXVILLE      FOG       54  53  97 CALM      30.31R VSB 3/4
LAFOLLETTE*    FOG       54  54 100 CALM      30.35R VSB 1/4
OAK RIDGE      CLOUDY    56  53  90 CALM      30.33S
CROSSVILLE     CLOUDY    55  51  86 S6        30.30R
NASHVILLE      CLOUDY    54  51  90 CALM      30.25R
$$

...KEY TO REMARKS...
VSB - VISIBILITY IN MILES
WCI - WIND CHILL INDEX
HX  - HEAT INDEX

$$




USA.gov is the U.S. government's official web portal to all federal, state and local government web resources and services.